Погода в Мастихари

Греция     36°50′54″N   27°04′40″E
темп.,
°C
ветер,
м/с
пор.,
м/с
влажн.,
%
обл.,
%
осадки,
мм/ч
давл.,
гПа
погр.,
м
25 февраля, чт
чт2523:00+15ссз1315710 0.0 1023542
02:00+13с1315753 0.0 1023484
05:00+13с12157532 0.0 1022495
08:00+13с13157116 0.0 1023524
11:00+13с1213640 0.0 1023535
14:00+15с910600 0.0 1023548
17:00+17с89610 0.0 1023410
20:00+16с78650 0.0 1024361
26 февраля, пт
пт2623:00+15ссв67680 0.0 1025288
02:00+15ссв56670 0.0 1025249
05:00+14с55650 0.0 1024248
08:00+14с66650 0.0 1024314
11:00+14с66620 0.0 1025425
14:00+14ссз56610 0.0 1023418
17:00+15сз66670 0.0 1022498
20:00+15ссз67700 0.0 1021437
27 февраля, сб
сб2723:00+15ссз66700 0.0 1021457
02:00+15ссз56690 0.0 1020481
05:00+15ссз66700 0.0 1019510
08:00+15ссз56700 0.0 1019514
11:00+15сз66690 0.0 1019535
14:00+15сз77710 0.0 1017566
17:00+15сз67720 0.0 1017621
20:00+15ссз78730 0.0 1017533
28 февраля, вс
вс2823:00+15сз89730 0.0 1017582
02:00+15ссз910760 0.0 1016622
05:00+15ссз78730 0.0 1015579
08:00+15с67720 0.0 1016431
11:00+15с911670 0.0 1016631
14:00+15ссз1214680 0.0 1016747
17:00+15ссз1415690 0.0 1016779
20:00+13с1617660 0.0 1018979
1 марта, пн
пн123:00+12с1617680 0.0 1019890
02:00+11с1516690 0.0 10191006
05:00+11с1517620 0.0 10201038
08:00+11с1416610 0.0 1021914
11:00+11с1315620 0.0 1022802
14:00+12с1415610 0.0 1021856
17:00+13с1415570 0.0 10211140
20:00+12с1415600 0.0 1023985